Weather History for Glasgow, MT

Change the Weather History Date:

Thursday, February 14, 2013

  Actual Average Record
Temperature  
Mean Temperature 23 °F 19 °F  
Max Temperature 30 °F 29 °F 49 °F (1998)
Min Temperature 16 °F 9 °F -54 °F (1936)
Degree Days  
Heating Degree Days 42 46  
Month to date heating degree days 572 671  
Since 1 July heating degree days 5642 5760  
Cooling Degree Days 0 0  
Month to date cooling degree days 0 0  
Year to date cooling degree days 0 0  
Moisture  
Dew Point 19 °F    
Average Humidity 76    
Maximum Humidity 88    
Minimum Humidity 63    
Precipitation  
Precipitation 0.02 in 0.01 in 0.21 in (1905)
Month to date precipitation 0.07 0.12  
Year to date precipitation 0.63 0.49  
Snow  
Snow 0.60 in 0.20 in 4.00 in (1965)
Month to date snowfall 1.5 2.2  
Since 1 July snowfall 37.3 24.8  
Snow Depth 1.00 in    
Sea Level Pressure  
Sea Level Pressure 30.29 in    
Wind  
Wind Speed 11 mph (NW)    
Max Wind Speed 32 mph    
Max Gust Speed 39 mph    
Visibility 7 miles    
Events Snow    
T = Trace of Precipitation, MM = Missing Value Source: NWS Daily Summary

Daily Weather History Graph

Daily Weather History Graph

Search for Another Location

Airport:

Trip Planner

Search our weather history database for the weather conditions in past years. The results will help you decide how hot, cold, wet, or windy it might be!

Date:

Astronomy

Feb. 14, 2013 Rise Set
Actual Time 7:14 AM MST 5:27 PM MST
Civil Twilight 6:42 AM MST 5:59 PM MST
Nautical Twilight 6:05 AM MST 6:36 PM MST
Astronomical Twilight 5:29 AM MST 7:12 PM MST
Moon 8:51 AM MST (2/14) 11:02 PM MST (2/14)
Length of Visible Light 11h 17m
Length of Day
10h 13m
Waxing Crescent, 22% of the Moon is Illuminated
Feb 14
Waxing Crescent
Feb 17
First Quarter
Feb 25
Full
Mar 4
Last Quarter
Mar 11
New

Hourly Weather History & Observations

Time (MST) Temp. Windchill Dew Point Humidity Pressure Visibility Wind Dir Wind Speed Gust Speed Precip Events Conditions
12:53 AM 30.0 °F 16.0 °F 24.1 °F 79% 30.05 in 10.0 mi WNW 25.3 mph 34.5 mph N/A   Overcast
1:53 AM 27.0 °F 12.5 °F 21.9 °F 81% 30.13 in 10.0 mi NNW 23.0 mph 35.7 mph N/A   Overcast
2:08 AM 26.6 °F 12.4 °F 21.2 °F 80% 30.07 in 10.0 mi NNW 21.9 mph 28.8 mph N/A   Mostly Cloudy
2:53 AM 25.0 °F 12.2 °F 19.9 °F 81% 30.17 in 10.0 mi NNW 16.1 mph - N/A   Partly Cloudy
3:20 AM 24.8 °F 12.4 °F 21.2 °F 86% 30.12 in 10.0 mi NW 15.0 mph - N/A   Mostly Cloudy
3:40 AM 24.8 °F 14.0 °F 21.2 °F 86% 30.14 in 10.0 mi WNW 11.5 mph - N/A   Overcast
3:53 AM 25.0 °F 15.5 °F 21.0 °F 85% 30.23 in 10.0 mi NW 9.2 mph - N/A   Overcast
4:53 AM 25.0 °F 18.1 °F 21.0 °F 85% 30.26 in 7.0 mi WNW 5.8 mph - 0.00 in Snow Light Snow
5:15 AM 24.8 °F 16.1 °F 21.2 °F 86% 30.18 in 2.5 mi NW 8.1 mph - 0.00 in Snow Light Snow
5:26 AM 24.8 °F 15.3 °F 21.2 °F 86% 30.18 in 1.8 mi WNW 9.2 mph - 0.00 in Snow Light Snow
5:46 AM 24.8 °F 14.6 °F 21.2 °F 86% 30.19 in 2.0 mi NW 10.4 mph - 0.01 in Snow Light Snow
5:53 AM 24.1 °F 14.4 °F 21.9 °F 91% 30.29 in 3.0 mi NW 9.2 mph - 0.01 in Snow Light Snow
6:10 AM 24.8 °F 15.3 °F 21.2 °F 86% 30.20 in 2.0 mi NW 9.2 mph - 0.00 in Snow Light Snow
6:14 AM 24.8 °F 15.3 °F 21.2 °F 86% 30.20 in 1.2 mi NW 9.2 mph - 0.00 in Snow Light Snow
6:22 AM 24.8 °F 15.3 °F 21.2 °F 86% 30.20 in 1.0 mi NW 9.2 mph - 0.00 in Snow Light Snow
6:32 AM 24.8 °F 14.6 °F 21.2 °F 86% 30.21 in 1.5 mi NW 10.4 mph - 0.01 in Snow Light Snow
6:37 AM 24.8 °F 15.3 °F 21.2 °F 86% 30.21 in 3.0 mi NW 9.2 mph - 0.01 in Snow Light Snow
6:40 AM 24.8 °F 15.3 °F 21.2 °F 86% 30.21 in 4.0 mi NW 9.2 mph - 0.01 in Snow Light Snow
6:53 AM 25.0 °F 14.2 °F 21.9 °F 88% 30.31 in 6.0 mi NW 11.5 mph - 0.01 in Snow Light Snow
7:12 AM 24.8 °F 11.1 °F 21.2 °F 86% 30.22 in 4.0 mi NW 18.4 mph - 0.00 in Snow Light Snow
7:53 AM 24.1 °F 10.6 °F 19.9 °F 84% 30.35 in 3.0 mi NW 17.3 mph 25.3 mph 0.00 in Snow Light Snow
8:02 AM 24.8 °F 10.7 °F 19.4 °F 80% 30.25 in 2.0 mi NW 19.6 mph - 0.00 in Snow Light Snow
8:10 AM 24.8 °F 11.1 °F 19.4 °F 80% 30.25 in 1.2 mi NW 18.4 mph 24.2 mph 0.00 in Snow Light Snow
8:38 AM 24.8 °F 10.7 °F 19.4 °F 80% 30.25 in 1.8 mi NW 19.6 mph 25.3 mph 0.00 in Snow Light Snow
8:45 AM 24.8 °F 10.3 °F 19.4 °F 80% 30.25 in 2.5 mi NW 20.7 mph - 0.00 in Snow Light Snow
8:53 AM 24.1 °F 9.4 °F 19.9 °F 84% 30.35 in 3.0 mi NW 20.7 mph - 0.00 in Snow Light Snow
9:25 AM 21.2 °F 6.0 °F 19.4 °F 93% 30.26 in 4.0 mi NW 19.6 mph - 0.00 in Snow Light Snow
9:53 AM 25.0 °F 10.6 °F 19.0 °F 78% 30.38 in 10.0 mi NW 20.7 mph 25.3 mph 0.00 in   Scattered Clouds
10:50 AM 24.8 °F 11.1 °F 17.6 °F 74% 30.30 in 10.0 mi NW 18.4 mph - N/A   Overcast
10:53 AM 24.1 °F 10.6 °F 18.0 °F 77% 30.40 in 10.0 mi NW 17.3 mph 24.2 mph N/A   Overcast
11:53 AM 24.1 °F 12.0 °F 18.0 °F 77% 30.41 in 10.0 mi NW 13.8 mph - N/A   Overcast
12:53 PM 26.1 °F 13.6 °F 18.0 °F 71% 30.40 in 10.0 mi NW 16.1 mph - N/A   Overcast
1:04 PM 26.6 °F 15.2 °F 17.6 °F 69% 30.29 in 10.0 mi NW 13.8 mph - N/A   Overcast
1:33 PM 28.4 °F 16.6 °F 19.4 °F 69% 30.29 in 10.0 mi NW 16.1 mph - N/A   Mostly Cloudy
1:53 PM 26.1 °F 15.0 °F 18.0 °F 71% 30.40 in 10.0 mi NW 12.7 mph - N/A   Overcast
2:14 PM 26.6 °F 16.8 °F 17.6 °F 69% 30.30 in 10.0 mi NW 10.4 mph - N/A   Overcast
2:28 PM 26.6 °F 16.8 °F 17.6 °F 69% 30.30 in 10.0 mi NNW 10.4 mph - N/A   Overcast
2:36 PM 26.6 °F 13.8 °F 19.4 °F 74% 30.29 in 10.0 mi NNW 17.3 mph 20.7 mph N/A   Overcast
2:53 PM 27.0 °F 14.7 °F 17.1 °F 66% 30.40 in 10.0 mi NW 16.1 mph - N/A   Overcast
3:25 PM 26.6 °F 13.8 °F 15.8 °F 64% 30.29 in 10.0 mi NNW 17.3 mph - N/A   Scattered Clouds
3:53 PM 26.1 °F 15.6 °F 15.1 °F 63% 30.40 in 10.0 mi NW 11.5 mph - N/A   Clear
4:53 PM 25.0 °F 14.8 °F 15.1 °F 66% 30.42 in 10.0 mi NW 10.4 mph - N/A   Partly Cloudy
5:53 PM 19.9 °F 11.1 °F 12.9 °F 74% 30.43 in 10.0 mi North 6.9 mph - N/A   Clear
6:53 PM 19.0 °F - 12.9 °F 77% 30.43 in 10.0 mi Calm Calm - N/A   Clear
7:53 PM 18.0 °F - 12.9 °F 81% 30.42 in 10.0 mi Calm Calm - N/A   Clear
8:53 PM 16.0 °F 10.4 °F 10.9 °F 81% 30.42 in 10.0 mi WSW 3.5 mph - N/A   Clear
9:53 PM 16.0 °F 7.4 °F 12.0 °F 84% 30.41 in 10.0 mi WSW 5.8 mph - N/A   Overcast
10:53 PM 17.1 °F - 12.0 °F 81% 30.41 in 10.0 mi Calm Calm - N/A   Overcast
11:53 PM 19.0 °F - 14.0 °F 81% 30.41 in 10.0 mi Calm Calm - N/A   Overcast